Newark Heath, OH

2:08 AM EDT on April 29, 2017 (GMT -0400)
Newark Heath

Weather History for KVTA - November, 2012

Change the Weather History Date:

Tuesday, November 6, 2012

  Actual Average Record
Temperature  
Mean Temperature 36 °F -  
Max Temperature 48 °F 53 °F 76 °F (1948)
Min Temperature 24 °F 35 °F 17 °F (1953)
Degree Days  
Heating Degree Days 29    
Moisture  
Dew Point 25 °F    
Average Humidity 71    
Maximum Humidity 88    
Minimum Humidity 42    
Precipitation  
Precipitation 0.00 in - - ()
Sea Level Pressure  
Sea Level Pressure 30.04 in    
Wind  
Wind Speed 1 mph (ENE)    
Max Wind Speed 9 mph    
Max Gust Speed -    
Visibility 9 miles    
Events      
Averages and records for this station are not official NWS values.
T = Trace of Precipitation, MM = Missing Value Source: NWS Daily Summary

Daily Weather History Graph

Daily Weather History Graph

Search for Another Location

Airport or City:

Trip Planner

Search our weather history database for the weather conditions in past years. The results will help you decide how hot, cold, wet, or windy it might be!

Date:

Astronomy

Nov. 06, 2012 Rise Set
Actual Time 7:05 AM EST 5:21 PM EST
Civil Twilight 6:36 AM EST 5:49 PM EST
Nautical Twilight 6:04 AM EST 6:21 PM EST
Astronomical Twilight 5:32 AM EST 6:53 PM EST
Moon 11:59 PM EST (11/6) 12:56 PM EST (11/6)
Length of Visible Light 11h 12m
Length of Day
10h 16m
Waning Gibbous, 53% of the Moon is Illuminated
Nov 6
Waning Gibbous
Nov 6
Last Quarter
Nov 13
New
Nov 20
First Quarter
Nov 28
Full

Hourly Weather History & Observations

Time (EST) Temp. Windchill Dew Point Humidity Pressure Visibility Wind Dir Wind Speed Gust Speed Precip Events Conditions
12:54 AM 30.9 °F - 25.0 °F 79% 30.14 in 9.0 mi Calm Calm - N/A   Clear
1:54 AM 30.0 °F - 24.1 °F 79% 30.14 in 9.0 mi Calm Calm - N/A   Clear
2:54 AM 28.9 °F - 24.1 °F 82% 30.13 in 9.0 mi Calm Calm - N/A   Clear
3:54 AM 27.0 °F - 23.0 °F 85% 30.11 in 8.0 mi Calm Calm - N/A   Clear
4:54 AM 24.1 °F - 19.9 °F 84% 30.12 in 7.0 mi Calm Calm - N/A   Clear
5:54 AM 26.1 °F - 21.0 °F 81% 30.11 in 7.0 mi Calm Calm - N/A   Clear
6:54 AM 24.1 °F - 19.9 °F 84% 30.12 in 6.0 mi Calm Calm - N/A   Clear
7:54 AM 28.0 °F - 24.1 °F 85% 30.11 in 6.0 mi Calm Calm - N/A   Clear
8:54 AM 33.1 °F - 26.1 °F 75% 30.10 in 9.0 mi Calm Calm - N/A   Clear
9:54 AM 37.9 °F 34.4 °F 28.0 °F 68% 30.09 in 10.0 mi East 4.6 mph - N/A   Clear
10:54 AM 42.1 °F 36.6 °F 27.0 °F 55% 30.07 in 10.0 mi East 9.2 mph - N/A   Clear
11:54 AM 43.0 °F - 28.0 °F 56% 30.06 in 10.0 mi Calm Calm - N/A   Clear
12:54 PM 46.0 °F 44.8 °F 28.0 °F 50% 30.03 in 10.0 mi Variable 3.5 mph - N/A   Clear
1:54 PM 46.9 °F - 27.0 °F 46% 30.00 in 10.0 mi East 4.6 mph - N/A   Clear
2:54 PM 48.0 °F - 27.0 °F 44% 29.98 in 10.0 mi Calm Calm - N/A   Clear
3:54 PM 48.0 °F - 26.1 °F 42% 29.97 in 10.0 mi NE 3.5 mph - N/A   Clear
4:54 PM 46.0 °F - 26.1 °F 46% 29.97 in 10.0 mi Calm Calm - N/A   Clear
5:54 PM 42.1 °F - 26.1 °F 53% 29.97 in 10.0 mi Calm Calm - N/A   Clear
6:54 PM 34.0 °F - 27.0 °F 75% 29.98 in 10.0 mi Calm Calm - N/A   Mostly Cloudy
7:54 PM 32.0 °F - 27.0 °F 82% 29.98 in 8.0 mi Calm Calm - N/A   Overcast
8:54 PM 30.0 °F - 26.1 °F 85% 29.97 in 10.0 mi Calm Calm - N/A   Clear
9:54 PM 28.9 °F - 25.0 °F 85% 29.97 in 10.0 mi Calm Calm - N/A   Clear
10:54 PM 28.0 °F - 25.0 °F 88% 29.95 in 9.0 mi Calm Calm - N/A   Clear
11:54 PM 28.0 °F - 24.1 °F 85% 29.94 in 7.0 mi Calm Calm - N/A   Clear